owner,sensor,date,latitude,longitude,vertical_datum,sea_water_temperature,qcFlag
Shell,ioos:station:wmo:42361:2,2022-06-02T13:35:00Z,27.5500,-92.4900,24.2,26.6,11111222
Shell,ioos:station:wmo:42361:2,2022-06-02T13:45:00Z,27.5500,-92.4900,24.2,26.6,11111222
Shell,ioos:station:wmo:42361:2,2022-06-02T13:55:00Z,27.5500,-92.4900,24.2,26.6,11111222
Shell,ioos:station:wmo:42361:2,2022-06-02T14:05:00Z,27.5500,-92.4900,24.2,26.6,11111222
Shell,ioos:station:wmo:42361:2,2022-06-02T14:15:00Z,27.5500,-92.4900,24.2,26.6,11111222
Shell,ioos:station:wmo:42361:2,2022-06-02T14:25:00Z,27.5500,-92.4900,24.2,26.6,11111222
Shell,ioos:station:wmo:42361:2,2022-06-02T14:35:00Z,27.5500,-92.4900,24.2,26.6,11111222
Shell,ioos:station:wmo:42361:2,2022-06-02T14:45:00Z,27.5500,-92.4900,24.2,26.6,11111222
Shell,ioos:station:wmo:42361:2,2022-06-02T14:55:00Z,27.5500,-92.4900,24.2,26.7,11111222
Shell,ioos:station:wmo:42361:2,2022-06-02T15:05:00Z,27.5500,-92.4900,24.2,26.7,11111222
Shell,ioos:station:wmo:42361:2,2022-06-02T15:15:00Z,27.5500,-92.4900,24.2,26.5,11111222
Shell,ioos:station:wmo:42361:2,2022-06-02T15:25:00Z,27.5500,-92.4900,24.2,26.4,11111222
Shell,ioos:station:wmo:42361:2,2022-06-02T15:35:00Z,27.5500,-92.4900,24.2,26.4,11111222
Shell,ioos:station:wmo:42361:2,2022-06-02T15:45:00Z,27.5500,-92.4900,24.2,26.4,11111222
Shell,ioos:station:wmo:42361:2,2022-06-02T15:55:00Z,27.5500,-92.4900,24.2,26.5,11111222
Shell,ioos:station:wmo:42361:2,2022-06-02T16:05:00Z,27.5500,-92.4900,24.2,26.5,11111222
Shell,ioos:station:wmo:42361:2,2022-06-02T16:15:00Z,27.5500,-92.4900,24.2,26.5,11111222
Shell,ioos:station:wmo:42361:2,2022-06-02T16:25:00Z,27.5500,-92.4900,24.2,26.5,11111222
Shell,ioos:station:wmo:42361:2,2022-06-02T16:35:00Z,27.5500,-92.4900,24.2,26.5,11111222
Shell,ioos:station:wmo:42361:2,2022-06-02T16:45:00Z,27.5500,-92.4900,24.1,26.6,11111222
Shell,ioos:station:wmo:42361:2,2022-06-02T16:55:00Z,27.5500,-92.4900,24.1,26.6,11111222
Shell,ioos:station:wmo:42361:2,2022-06-02T17:05:00Z,27.5500,-92.4900,24.1,26.6,11111222
Shell,ioos:station:wmo:42361:2,2022-06-02T17:15:00Z,27.5500,-92.4900,24.1,26.7,11111222
Shell,ioos:station:wmo:42361:2,2022-06-02T17:25:00Z,27.5500,-92.4900,24.1,26.8,11111222
Shell,ioos:station:wmo:42361:2,2022-06-02T17:35:00Z,27.5500,-92.4900,24.1,26.9,11111222
Shell,ioos:station:wmo:42361:2,2022-06-02T17:45:00Z,27.5500,-92.4900,24.1,26.8,11111222
Shell,ioos:station:wmo:42361:2,2022-06-02T17:55:00Z,27.5500,-92.4900,24.1,26.8,11111222
Shell,ioos:station:wmo:42361:2,2022-06-02T18:05:00Z,27.5500,-92.4900,24.1,26.8,11111222
Shell,ioos:station:wmo:42361:2,2022-06-02T18:15:00Z,27.5500,-92.4900,24.1,26.9,11111222
Shell,ioos:station:wmo:42361:2,2022-06-02T18:25:00Z,27.5500,-92.4900,24.1,26.9,11111222
Shell,ioos:station:wmo:42361:2,2022-06-02T18:35:00Z,27.5500,-92.4900,24.1,27.0,11111222
Shell,ioos:station:wmo:42361:2,2022-06-02T18:45:00Z,27.5500,-92.4900,24.1,26.9,11111222
Shell,ioos:station:wmo:42361:2,2022-06-02T18:55:00Z,27.5500,-92.4900,24.1,26.9,11111222
Shell,ioos:station:wmo:42361:2,2022-06-02T19:05:00Z,27.5500,-92.4900,24.1,26.9,11111222
Shell,ioos:station:wmo:42361:2,2022-06-02T19:15:00Z,27.5500,-92.4900,24.1,27.0,11111222
Shell,ioos:station:wmo:42361:2,2022-06-02T19:25:00Z,27.5500,-92.4900,24.0,27.0,11111222
Shell,ioos:station:wmo:42361:2,2022-06-02T19:35:00Z,27.5500,-92.4900,24.0,27.1,11111222
Shell,ioos:station:wmo:42361:2,2022-06-02T19:45:00Z,27.5500,-92.4900,24.0,27.1,11111222
Shell,ioos:station:wmo:42361:2,2022-06-02T19:55:00Z,27.5500,-92.4900,24.0,27.3,11111222
Shell,ioos:station:wmo:42361:2,2022-06-02T20:05:00Z,27.5500,-92.4900,24.0,27.2,11111222
Shell,ioos:station:wmo:42361:2,2022-06-02T20:15:00Z,27.5500,-92.4900,24.0,27.2,11111222
Shell,ioos:station:wmo:42361:2,2022-06-02T20:25:00Z,27.5500,-92.4900,24.0,27.2,11111222
Shell,ioos:station:wmo:42361:2,2022-06-02T20:35:00Z,27.5500,-92.4900,24.0,27.3,11111222
Shell,ioos:station:wmo:42361:2,2022-06-02T20:45:00Z,27.5500,-92.4900,24.0,27.3,11111222
Shell,ioos:station:wmo:42361:2,2022-06-02T20:55:00Z,27.5500,-92.4900,23.9,27.4,11111222
Shell,ioos:station:wmo:42361:2,2022-06-02T21:05:00Z,27.5500,-92.4900,23.9,27.4,11111222
Shell,ioos:station:wmo:42361:2,2022-06-02T21:15:00Z,27.5500,-92.4900,23.9,27.4,11111222
Shell,ioos:station:wmo:42361:2,2022-06-02T21:25:00Z,27.5500,-92.4900,23.9,27.4,11111222
Shell,ioos:station:wmo:42361:2,2022-06-02T21:35:00Z,27.5500,-92.4900,23.9,27.4,11111222
Shell,ioos:station:wmo:42361:2,2022-06-02T21:45:00Z,27.5500,-92.4900,23.9,27.4,11111222
Shell,ioos:station:wmo:42361:2,2022-06-02T21:55:00Z,27.5500,-92.4900,23.9,27.5,11111222
Shell,ioos:station:wmo:42361:2,2022-06-02T22:05:00Z,27.5500,-92.4900,23.9,27.5,11111222
Shell,ioos:station:wmo:42361:2,2022-06-02T22:15:00Z,27.5500,-92.4900,23.9,27.5,11111222
Shell,ioos:station:wmo:42361:2,2022-06-02T22:25:00Z,27.5500,-92.4900,23.8,27.5,11111222
Shell,ioos:station:wmo:42361:2,2022-06-02T22:35:00Z,27.5500,-92.4900,23.8,27.4,11111222
Shell,ioos:station:wmo:42361:2,2022-06-02T22:45:00Z,27.5500,-92.4900,23.8,27.4,11111222
Shell,ioos:station:wmo:42361:2,2022-06-02T22:55:00Z,27.5500,-92.4900,23.8,27.4,11111222
Shell,ioos:station:wmo:42361:2,2022-06-02T23:05:00Z,27.5500,-92.4900,23.8,27.4,11111222
Shell,ioos:station:wmo:42361:2,2022-06-02T23:15:00Z,27.5500,-92.4900,23.8,27.4,11111222
Shell,ioos:station:wmo:42361:2,2022-06-02T23:25:00Z,27.5500,-92.4900,23.8,27.4,11111222
Shell,ioos:station:wmo:42361:2,2022-06-02T23:36:00Z,27.5500,-92.4900,23.8,27.4,11111222
Shell,ioos:station:wmo:42361:2,2022-06-02T23:46:00Z,27.5500,-92.4900,23.8,27.4,11111222
Shell,ioos:station:wmo:42361:2,2022-06-02T23:56:00Z,27.5500,-92.4900,23.7,27.4,11111222
Shell,ioos:station:wmo:42361:2,2022-06-03T00:06:00Z,27.5500,-92.4900,23.7,27.4,11111222
Shell,ioos:station:wmo:42361:2,2022-06-03T00:16:00Z,27.5500,-92.4900,23.7,27.4,11111222
Shell,ioos:station:wmo:42361:2,2022-06-03T00:26:00Z,27.5500,-92.4900,23.7,27.4,11111222
Shell,ioos:station:wmo:42361:2,2022-06-03T00:36:00Z,27.5500,-92.4900,23.7,27.4,11111222
Shell,ioos:station:wmo:42361:2,2022-06-03T00:46:00Z,27.5500,-92.4900,23.7,27.4,11111222
Shell,ioos:station:wmo:42361:2,2022-06-03T00:56:00Z,27.5500,-92.4900,23.7,27.4,11111222
Shell,ioos:station:wmo:42361:2,2022-06-03T01:06:00Z,27.5500,-92.4900,23.7,27.4,11111222
Shell,ioos:station:wmo:42361:2,2022-06-03T01:16:00Z,27.5500,-92.4900,23.7,27.4,11111222
Shell,ioos:station:wmo:42361:2,2022-06-03T01:26:00Z,27.5500,-92.4900,23.7,27.4,11111222
Shell,ioos:station:wmo:42361:2,2022-06-03T01:36:00Z,27.5500,-92.4900,23.7,27.3,11111222
Shell,ioos:station:wmo:42361:2,2022-06-03T01:46:00Z,27.5500,-92.4900,23.7,27.3,11111222
Shell,ioos:station:wmo:42361:2,2022-06-03T01:56:00Z,27.5500,-92.4900,23.7,27.3,11111222
Shell,ioos:station:wmo:42361:2,2022-06-03T02:06:00Z,27.5500,-92.4900,23.7,27.3,11111222
Shell,ioos:station:wmo:42361:2,2022-06-03T02:16:00Z,27.5500,-92.4900,23.6,27.2,11111222
Shell,ioos:station:wmo:42361:2,2022-06-03T02:26:00Z,27.5500,-92.4900,23.6,27.2,11111222
Shell,ioos:station:wmo:42361:2,2022-06-03T02:36:00Z,27.5500,-92.4900,23.6,27.2,11111222
Shell,ioos:station:wmo:42361:2,2022-06-03T02:46:00Z,27.5500,-92.4900,23.6,27.2,11111222
Shell,ioos:station:wmo:42361:2,2022-06-03T02:56:00Z,27.5500,-92.4900,23.6,27.3,11111222
Shell,ioos:station:wmo:42361:2,2022-06-03T03:06:00Z,27.5500,-92.4900,23.6,27.3,11111222
Shell,ioos:station:wmo:42361:2,2022-06-03T03:16:00Z,27.5500,-92.4900,23.6,27.3,11111222
Shell,ioos:station:wmo:42361:2,2022-06-03T03:26:00Z,27.5500,-92.4900,23.6,27.2,11111222
Shell,ioos:station:wmo:42361:2,2022-06-03T03:36:00Z,27.5500,-92.4900,23.6,27.2,11111222
Shell,ioos:station:wmo:42361:2,2022-06-03T03:46:00Z,27.5500,-92.4900,23.6,27.2,11111222
Shell,ioos:station:wmo:42361:2,2022-06-03T03:56:00Z,27.5500,-92.4900,23.6,27.2,11111222
Shell,ioos:station:wmo:42361:2,2022-06-03T04:06:00Z,27.5500,-92.4900,23.6,27.1,11111222
Shell,ioos:station:wmo:42361:2,2022-06-03T04:16:00Z,27.5500,-92.4900,23.6,27.1,11111222
Shell,ioos:station:wmo:42361:2,2022-06-03T04:26:00Z,27.5500,-92.4900,23.6,27.1,11111222
Shell,ioos:station:wmo:42361:2,2022-06-03T04:36:00Z,27.5500,-92.4900,23.6,27.1,11111222
Shell,ioos:station:wmo:42361:2,2022-06-03T04:46:00Z,27.5500,-92.4900,23.6,27.1,11111222
Shell,ioos:station:wmo:42361:2,2022-06-03T04:56:00Z,27.5500,-92.4900,23.6,27.1,11111222
Shell,ioos:station:wmo:42361:2,2022-06-03T05:06:00Z,27.5500,-92.4900,23.7,27.1,11111222
Shell,ioos:station:wmo:42361:2,2022-06-03T05:16:00Z,27.5500,-92.4900,23.7,27.1,11111222
Shell,ioos:station:wmo:42361:2,2022-06-03T05:26:00Z,27.5500,-92.4900,23.7,27.1,11111222
Shell,ioos:station:wmo:42361:2,2022-06-03T05:36:00Z,27.5500,-92.4900,23.7,27.1,11111222
Shell,ioos:station:wmo:42361:2,2022-06-03T05:46:00Z,27.5500,-92.4900,23.7,27.2,11111222
Shell,ioos:station:wmo:42361:2,2022-06-03T05:56:00Z,27.5500,-92.4900,23.7,27.1,11111222
Shell,ioos:station:wmo:42361:2,2022-06-03T06:06:00Z,27.5500,-92.4900,23.7,27.1,11111222
Shell,ioos:station:wmo:42361:2,2022-06-03T06:16:00Z,27.5500,-92.4900,23.7,27.1,11111222
Shell,ioos:station:wmo:42361:2,2022-06-03T06:26:00Z,27.5500,-92.4900,23.7,27.1,11111222
Shell,ioos:station:wmo:42361:2,2022-06-03T06:36:00Z,27.5500,-92.4900,23.7,27.2,11111222
Shell,ioos:station:wmo:42361:2,2022-06-03T06:46:00Z,27.5500,-92.4900,23.7,27.3,11111222
Shell,ioos:station:wmo:42361:2,2022-06-03T06:56:00Z,27.5500,-92.4900,23.7,27.2,11111222
Shell,ioos:station:wmo:42361:2,2022-06-03T07:06:00Z,27.5500,-92.4900,23.8,27.3,11111222
Shell,ioos:station:wmo:42361:2,2022-06-03T07:16:00Z,27.5500,-92.4900,23.8,27.4,11111222
Shell,ioos:station:wmo:42361:2,2022-06-03T07:26:00Z,27.5500,-92.4900,23.8,27.6,11111222
Shell,ioos:station:wmo:42361:2,2022-06-03T07:36:00Z,27.5500,-92.4900,23.8,27.7,11111222
Shell,ioos:station:wmo:42361:2,2022-06-03T07:46:00Z,27.5500,-92.4900,23.8,27.8,11111222
Shell,ioos:station:wmo:42361:2,2022-06-03T07:56:00Z,27.5500,-92.4900,23.8,27.7,11111222
Shell,ioos:station:wmo:42361:2,2022-06-03T08:06:00Z,27.5500,-92.4900,23.8,27.7,11111222
Shell,ioos:station:wmo:42361:2,2022-06-03T08:16:00Z,27.5500,-92.4900,23.8,27.6,11111222
Shell,ioos:station:wmo:42361:2,2022-06-03T08:26:00Z,27.5500,-92.4900,23.8,27.4,11111222
Shell,ioos:station:wmo:42361:2,2022-06-03T08:36:00Z,27.5500,-92.4900,23.9,27.4,11111222
Shell,ioos:station:wmo:42361:2,2022-06-03T08:46:00Z,27.5500,-92.4900,23.9,27.4,11111222
Shell,ioos:station:wmo:42361:2,2022-06-03T08:56:00Z,27.5500,-92.4900,23.9,27.4,11111222
Shell,ioos:station:wmo:42361:2,2022-06-03T09:06:00Z,27.5500,-92.4900,23.9,27.3,11111222
Shell,ioos:station:wmo:42361:2,2022-06-03T09:16:00Z,27.5500,-92.4900,23.9,27.3,11111222
Shell,ioos:station:wmo:42361:2,2022-06-03T09:26:00Z,27.5500,-92.4900,23.9,27.4,11111222
Shell,ioos:station:wmo:42361:2,2022-06-03T09:36:00Z,27.5500,-92.4900,23.9,27.3,11111222
Shell,ioos:station:wmo:42361:2,2022-06-03T09:46:00Z,27.5500,-92.4900,24.0,27.2,11111222
Shell,ioos:station:wmo:42361:2,2022-06-03T09:56:00Z,27.5500,-92.4900,24.0,27.1,11111222
Shell,ioos:station:wmo:42361:2,2022-06-03T10:06:00Z,27.5500,-92.4900,24.0,27.1,11111222
Shell,ioos:station:wmo:42361:2,2022-06-03T10:16:00Z,27.5500,-92.4900,24.0,27.1,11111222
Shell,ioos:station:wmo:42361:2,2022-06-03T10:26:00Z,27.5500,-92.4900,24.0,27.2,11111222
Shell,ioos:station:wmo:42361:2,2022-06-03T10:36:00Z,27.5500,-92.4900,24.0,27.1,11111222
Shell,ioos:station:wmo:42361:2,2022-06-03T10:46:00Z,27.5500,-92.4900,24.0,27.1,11111222
Shell,ioos:station:wmo:42361:2,2022-06-03T10:56:00Z,27.5500,-92.4900,24.0,27.1,11111222
Shell,ioos:station:wmo:42361:2,2022-06-03T11:06:00Z,27.5500,-92.4900,24.1,27.1,11111222
Shell,ioos:station:wmo:42361:2,2022-06-03T11:16:00Z,27.5500,-92.4900,24.1,27.1,11111222
Shell,ioos:station:wmo:42361:2,2022-06-03T11:26:00Z,27.5500,-92.4900,24.1,27.1,11111222
Shell,ioos:station:wmo:42361:2,2022-06-03T11:36:00Z,27.5500,-92.4900,24.1,27.1,11111222
Shell,ioos:station:wmo:42361:2,2022-06-03T11:46:00Z,27.5500,-92.4900,24.1,27.0,11111222
Shell,ioos:station:wmo:42361:2,2022-06-03T11:56:00Z,27.5500,-92.4900,24.1,27.1,11111222
Shell,ioos:station:wmo:42361:2,2022-06-03T12:06:00Z,27.5500,-92.4900,24.1,27.0,11111222
Shell,ioos:station:wmo:42361:2,2022-06-03T12:16:00Z,27.5500,-92.4900,24.1,27.0,11111222
Shell,ioos:station:wmo:42361:2,2022-06-03T12:26:00Z,27.5500,-92.4900,24.1,27.1,11111222
Shell,ioos:station:wmo:42361:2,2022-06-03T12:36:00Z,27.5500,-92.4900,24.1,27.0,11111222
Shell,ioos:station:wmo:42361:2,2022-06-03T12:46:00Z,27.5500,-92.4900,24.1,27.1,11111222
Shell,ioos:station:wmo:42361:2,2022-06-03T12:56:00Z,27.5500,-92.4900,24.1,27.1,11111222
Shell,ioos:station:wmo:42361:2,2022-06-03T13:06:00Z,27.5500,-92.4900,24.1,27.0,11111222
Shell,ioos:station:wmo:42361:2,2022-06-03T13:16:00Z,27.5500,-92.4900,24.1,27.1,11111222
Shell,ioos:station:wmo:42361:2,2022-06-03T13:26:00Z,27.5500,-92.4900,24.1,27.1,11111222
Shell,ioos:station:wmo:42361:2,2022-06-03T13:36:00Z,27.5500,-92.4900,24.2,27.2,11111222
Shell,ioos:station:wmo:42361:2,2022-06-03T13:46:00Z,27.5500,-92.4900,24.2,27.2,11111222
Shell,ioos:station:wmo:42361:2,2022-06-03T13:56:00Z,27.5500,-92.4900,24.2,27.3,11111222
Shell,ioos:station:wmo:42361:2,2022-06-03T14:06:00Z,27.5500,-92.4900,24.2,27.2,11111222
Shell,ioos:station:wmo:42361:2,2022-06-03T14:16:00Z,27.5500,-92.4900,24.2,27.3,11111222
Shell,ioos:station:wmo:42361:2,2022-06-03T14:26:00Z,27.5500,-92.4900,24.2,27.3,11111222
Shell,ioos:station:wmo:42361:2,2022-06-03T14:36:00Z,27.5500,-92.4900,24.2,27.2,11111222
Shell,ioos:station:wmo:42361:2,2022-06-03T14:46:00Z,27.5500,-92.4900,24.2,27.2,11111222
Shell,ioos:station:wmo:42361:2,2022-06-03T14:56:00Z,27.5500,-92.4900,24.2,27.2,11111222
Shell,ioos:station:wmo:42361:2,2022-06-03T15:06:00Z,27.5500,-92.4900,24.2,27.2,11111222
Shell,ioos:station:wmo:42361:2,2022-06-03T15:16:00Z,27.5500,-92.4900,24.2,27.1,11111222
Shell,ioos:station:wmo:42361:2,2022-06-03T15:26:00Z,27.5500,-92.4900,24.2,27.2,11111222
Shell,ioos:station:wmo:42361:2,2022-06-03T15:36:00Z,27.5500,-92.4900,24.2,27.2,11111222
Shell,ioos:station:wmo:42361:2,2022-06-03T15:52:00Z,27.5500,-92.4900,24.2,27.2,11111222
Shell,ioos:station:wmo:42361:2,2022-06-03T16:02:00Z,27.5500,-92.4900,24.1,27.3,11111222
Shell,ioos:station:wmo:42361:2,2022-06-03T16:12:00Z,27.5500,-92.4900,24.1,27.2,11111222
Shell,ioos:station:wmo:42361:2,2022-06-03T16:22:00Z,27.5500,-92.4900,24.1,27.4,11111222
Shell,ioos:station:wmo:42361:2,2022-06-03T16:32:00Z,27.5500,-92.4900,24.1,27.5,11111222
Shell,ioos:station:wmo:42361:2,2022-06-03T16:42:00Z,27.5500,-92.4900,24.1,27.2,11111222
Shell,ioos:station:wmo:42361:2,2022-06-03T16:52:00Z,27.5500,-92.4900,24.0,27.2,11111222
Shell,ioos:station:wmo:42361:2,2022-06-03T17:02:00Z,27.5500,-92.4900,24.0,27.1,11111222
Shell,ioos:station:wmo:42361:2,2022-06-03T17:12:00Z,27.5500,-92.4900,24.0,26.9,11111222
Shell,ioos:station:wmo:42361:2,2022-06-03T17:22:00Z,27.5500,-92.4900,24.0,26.9,11111222
Shell,ioos:station:wmo:42361:2,2022-06-03T17:41:00Z,27.5500,-92.4900,24.0,26.7,11111222
Shell,ioos:station:wmo:42361:2,2022-06-03T17:51:00Z,27.5500,-92.4900,24.0,26.8,11111222
Shell,ioos:station:wmo:42361:2,2022-06-03T18:05:00Z,27.5500,-92.4900,24.0,26.9,11111222
Shell,ioos:station:wmo:42361:2,2022-06-03T18:15:00Z,27.5500,-92.4900,24.0,27.0,11111222
Shell,ioos:station:wmo:42361:2,2022-06-03T18:25:00Z,27.5500,-92.4900,24.0,27.1,11111222
Shell,ioos:station:wmo:42361:2,2022-06-03T18:35:00Z,27.5500,-92.4900,24.0,27.1,11111222
Shell,ioos:station:wmo:42361:2,2022-06-03T18:45:00Z,27.5500,-92.4900,24.0,27.2,11111222
Shell,ioos:station:wmo:42361:2,2022-06-03T18:55:00Z,27.5500,-92.4900,24.0,27.2,11111222
Shell,ioos:station:wmo:42361:2,2022-06-03T19:05:00Z,27.5500,-92.4900,24.0,27.1,11111222
Shell,ioos:station:wmo:42361:2,2022-06-03T19:15:00Z,27.5500,-92.4900,23.9,27.1,11111222
Shell,ioos:station:wmo:42361:2,2022-06-03T19:25:00Z,27.5500,-92.4900,23.9,27.1,11111222
Shell,ioos:station:wmo:42361:2,2022-06-03T19:35:00Z,27.5500,-92.4900,23.9,27.0,11111222
Shell,ioos:station:wmo:42361:2,2022-06-03T19:45:00Z,27.5500,-92.4900,23.9,27.0,11111222
Shell,ioos:station:wmo:42361:2,2022-06-03T19:55:00Z,27.5500,-92.4900,23.9,27.0,11111222
Shell,ioos:station:wmo:42361:2,2022-06-03T20:05:00Z,27.5500,-92.4900,23.9,27.0,11111222
Shell,ioos:station:wmo:42361:2,2022-06-03T20:15:00Z,27.5500,-92.4900,23.9,27.1,11111222
Shell,ioos:station:wmo:42361:2,2022-06-03T20:25:00Z,27.5500,-92.4900,23.9,27.1,11111222
Shell,ioos:station:wmo:42361:2,2022-06-03T20:35:00Z,27.5500,-92.4900,23.9,27.3,11111222
Shell,ioos:station:wmo:42361:2,2022-06-03T20:45:00Z,27.5500,-92.4900,23.9,27.4,11111222
Shell,ioos:station:wmo:42361:2,2022-06-03T21:05:00Z,27.5500,-92.4900,23.8,27.5,11111222
Shell,ioos:station:wmo:42361:2,2022-06-03T21:15:00Z,27.5500,-92.4900,23.8,27.4,11111222
Shell,ioos:station:wmo:42361:2,2022-06-03T21:27:00Z,27.5500,-92.4900,23.8,27.3,11111222
Shell,ioos:station:wmo:42361:2,2022-06-03T21:42:00Z,27.5500,-92.4900,23.8,27.3,11111222
Shell,ioos:station:wmo:42361:2,2022-06-03T22:08:00Z,27.5500,-92.4900,23.7,27.4,11111222
Shell,ioos:station:wmo:42361:2,2022-06-03T22:57:00Z,27.5500,-92.4900,23.7,27.5,11111222
Shell,ioos:station:wmo:42361:2,2022-06-03T23:07:00Z,27.5500,-92.4900,23.7,27.6,11111222
Shell,ioos:station:wmo:42361:2,2022-06-03T23:17:00Z,27.5500,-92.4900,23.7,27.6,11111222
Shell,ioos:station:wmo:42361:2,2022-06-03T23:27:00Z,27.5500,-92.4900,23.7,27.6,11111222
Shell,ioos:station:wmo:42361:2,2022-06-03T23:37:00Z,27.5500,-92.4900,23.7,27.8,11111222
Shell,ioos:station:wmo:42361:2,2022-06-03T23:47:00Z,27.5500,-92.4900,23.6,27.7,11111222
Shell,ioos:station:wmo:42361:2,2022-06-03T23:57:00Z,27.5500,-92.4900,23.6,27.7,11111222
Shell,ioos:station:wmo:42361:2,2022-06-04T00:07:00Z,27.5500,-92.4900,23.6,27.6,11111222
Shell,ioos:station:wmo:42361:2,2022-06-04T00:17:00Z,27.5500,-92.4900,23.6,27.6,11111222
Shell,ioos:station:wmo:42361:2,2022-06-04T00:27:00Z,27.5500,-92.4900,23.6,27.7,11111222
Shell,ioos:station:wmo:42361:2,2022-06-04T00:37:00Z,27.5500,-92.4900,23.6,27.7,11111222
Shell,ioos:station:wmo:42361:2,2022-06-04T00:47:00Z,27.5500,-92.4900,23.6,27.6,11111222
Shell,ioos:station:wmo:42361:2,2022-06-04T00:57:00Z,27.5500,-92.4900,23.6,27.6,11111222
Shell,ioos:station:wmo:42361:2,2022-06-04T01:07:00Z,27.5500,-92.4900,23.6,27.6,11111222
Shell,ioos:station:wmo:42361:2,2022-06-04T01:17:00Z,27.5500,-92.4900,23.6,27.6,11111222
Shell,ioos:station:wmo:42361:2,2022-06-04T01:27:00Z,27.5500,-92.4900,23.6,27.6,11111222
Shell,ioos:station:wmo:42361:2,2022-06-04T01:37:00Z,27.5500,-92.4900,23.6,27.6,11111222
Shell,ioos:station:wmo:42361:2,2022-06-04T01:47:00Z,27.5500,-92.4900,23.5,27.6,11111222
Shell,ioos:station:wmo:42361:2,2022-06-04T01:57:00Z,27.5500,-92.4900,23.5,27.7,11111222
Shell,ioos:station:wmo:42361:2,2022-06-04T02:07:00Z,27.5500,-92.4900,23.5,27.8,11111222
Shell,ioos:station:wmo:42361:2,2022-06-04T02:17:00Z,27.5500,-92.4900,23.5,27.8,11111222
Shell,ioos:station:wmo:42361:2,2022-06-04T02:27:00Z,27.5500,-92.4900,23.5,27.9,11111222
Shell,ioos:station:wmo:42361:2,2022-06-04T02:37:00Z,27.5500,-92.4900,23.5,27.9,11111222
Shell,ioos:station:wmo:42361:2,2022-06-04T02:47:00Z,27.5500,-92.4900,23.5,27.9,11111222
Shell,ioos:station:wmo:42361:2,2022-06-04T02:57:00Z,27.5500,-92.4900,23.5,28.0,11111222
Shell,ioos:station:wmo:42361:2,2022-06-04T03:07:00Z,27.5500,-92.4900,23.5,28.0,11111222
Shell,ioos:station:wmo:42361:2,2022-06-04T03:17:00Z,27.5500,-92.4900,23.5,28.0,11111222
Shell,ioos:station:wmo:42361:2,2022-06-04T03:27:00Z,27.5500,-92.4900,23.5,28.0,11111222
Shell,ioos:station:wmo:42361:2,2022-06-04T03:37:00Z,27.5500,-92.4900,23.5,28.0,11111222
Shell,ioos:station:wmo:42361:2,2022-06-04T03:47:00Z,27.5500,-92.4900,23.5,28.0,11111222
Shell,ioos:station:wmo:42361:2,2022-06-04T03:57:00Z,27.5500,-92.4900,23.5,28.0,11111222
Shell,ioos:station:wmo:42361:2,2022-06-04T04:07:00Z,27.5500,-92.4900,23.5,27.9,11111222
Shell,ioos:station:wmo:42361:2,2022-06-04T04:17:00Z,27.5500,-92.4900,23.5,27.9,11111222
Shell,ioos:station:wmo:42361:2,2022-06-04T04:27:00Z,27.5500,-92.4900,23.5,27.9,11111222
Shell,ioos:station:wmo:42361:2,2022-06-04T04:37:00Z,27.5500,-92.4900,23.5,27.9,11111222
Shell,ioos:station:wmo:42361:2,2022-06-04T04:47:00Z,27.5500,-92.4900,23.5,27.9,11111222
Shell,ioos:station:wmo:42361:2,2022-06-04T04:57:00Z,27.5500,-92.4900,23.5,27.9,11111222
Shell,ioos:station:wmo:42361:2,2022-06-04T05:07:00Z,27.5500,-92.4900,23.5,27.9,11111222
Shell,ioos:station:wmo:42361:2,2022-06-04T05:17:00Z,27.5500,-92.4900,23.5,27.9,11111222
Shell,ioos:station:wmo:42361:2,2022-06-04T05:27:00Z,27.5500,-92.4900,23.5,27.9,11111222
Shell,ioos:station:wmo:42361:2,2022-06-04T05:37:00Z,27.5500,-92.4900,23.5,27.8,11111222
Shell,ioos:station:wmo:42361:2,2022-06-04T05:47:00Z,27.5500,-92.4900,23.5,27.9,11111222
Shell,ioos:station:wmo:42361:2,2022-06-04T05:57:00Z,27.5500,-92.4900,23.5,27.9,11111222
Shell,ioos:station:wmo:42361:2,2022-06-04T06:07:00Z,27.5500,-92.4900,23.6,27.8,11111222
Shell,ioos:station:wmo:42361:2,2022-06-04T06:17:00Z,27.5500,-92.4900,23.6,27.8,11111222
Shell,ioos:station:wmo:42361:2,2022-06-04T06:27:00Z,27.5500,-92.4900,23.6,27.8,11111222
Shell,ioos:station:wmo:42361:2,2022-06-04T06:37:00Z,27.5500,-92.4900,23.6,27.8,11111222
Shell,ioos:station:wmo:42361:2,2022-06-04T06:47:00Z,27.5500,-92.4900,23.6,27.7,11111222
Shell,ioos:station:wmo:42361:2,2022-06-04T06:57:00Z,27.5500,-92.4900,23.6,27.7,11111222
Shell,ioos:station:wmo:42361:2,2022-06-04T07:07:00Z,27.5500,-92.4900,23.6,27.7,11111222
Shell,ioos:station:wmo:42361:2,2022-06-04T07:17:00Z,27.5500,-92.4900,23.6,27.7,11111222
Shell,ioos:station:wmo:42361:2,2022-06-04T07:27:00Z,27.5500,-92.4900,23.6,27.6,11111222
Shell,ioos:station:wmo:42361:2,2022-06-04T07:37:00Z,27.5500,-92.4900,23.6,27.6,11111222
Shell,ioos:station:wmo:42361:2,2022-06-04T07:47:00Z,27.5500,-92.4900,23.6,27.5,11111222
Shell,ioos:station:wmo:42361:2,2022-06-04T07:57:00Z,27.5500,-92.4900,23.6,27.5,11111222
Shell,ioos:station:wmo:42361:2,2022-06-04T08:07:00Z,27.5500,-92.4900,23.7,27.3,11111222
Shell,ioos:station:wmo:42361:2,2022-06-04T08:17:00Z,27.5500,-92.4900,23.7,27.3,11111222
Shell,ioos:station:wmo:42361:2,2022-06-04T08:27:00Z,27.5500,-92.4900,23.7,27.6,11111222
Shell,ioos:station:wmo:42361:2,2022-06-04T08:37:00Z,27.5500,-92.4900,23.7,27.7,11111222
Shell,ioos:station:wmo:42361:2,2022-06-04T08:47:00Z,27.5500,-92.4900,23.7,27.6,11111222
Shell,ioos:station:wmo:42361:2,2022-06-04T08:57:00Z,27.5500,-92.4900,23.7,27.3,11111222
Shell,ioos:station:wmo:42361:2,2022-06-04T09:07:00Z,27.5500,-92.4900,23.7,27.1,11111222
Shell,ioos:station:wmo:42361:2,2022-06-04T09:17:00Z,27.5500,-92.4900,23.7,27.2,11111222
Shell,ioos:station:wmo:42361:2,2022-06-04T09:27:00Z,27.5500,-92.4900,23.8,27.0,11111222
Shell,ioos:station:wmo:42361:2,2022-06-04T09:37:00Z,27.5500,-92.4900,23.8,26.9,11111222
Shell,ioos:station:wmo:42361:2,2022-06-04T09:47:00Z,27.5500,-92.4900,23.8,26.8,11111222
Shell,ioos:station:wmo:42361:2,2022-06-04T09:57:00Z,27.5500,-92.4900,23.8,26.8,11111222
Shell,ioos:station:wmo:42361:2,2022-06-04T10:07:00Z,27.5500,-92.4900,23.8,26.8,11111222
Shell,ioos:station:wmo:42361:2,2022-06-04T10:17:00Z,27.5500,-92.4900,23.8,26.7,11111222
Shell,ioos:station:wmo:42361:2,2022-06-04T10:27:00Z,27.5500,-92.4900,23.8,26.7,11111222
Shell,ioos:station:wmo:42361:2,2022-06-04T10:37:00Z,27.5500,-92.4900,23.8,26.7,11111222
Shell,ioos:station:wmo:42361:2,2022-06-04T10:47:00Z,27.5500,-92.4900,23.8,26.7,11111222
Shell,ioos:station:wmo:42361:2,2022-06-04T10:57:00Z,27.5500,-92.4900,23.9,26.7,11111222
Shell,ioos:station:wmo:42361:2,2022-06-04T11:07:00Z,27.5500,-92.4900,23.9,26.7,11111222
Shell,ioos:station:wmo:42361:2,2022-06-04T11:17:00Z,27.5500,-92.4900,23.9,26.8,11111222
Shell,ioos:station:wmo:42361:2,2022-06-04T11:27:00Z,27.5500,-92.4900,23.9,26.8,11111222
Shell,ioos:station:wmo:42361:2,2022-06-04T11:37:00Z,27.5500,-92.4900,23.9,26.8,11111222